Regional Weather Roundup
Issued by NWS

Home | Current Version | Previous Version | Text Only | Print | Product List | Glossary On
Versions: 1 2 3 4 5 6 7 8 9 10 11 12 13 14 15 16 17 18 19 20 21 22 23 24 25 26 27 28 29 30 31 32 33 34 35 36 37 38 39 40 41 42 43 44 45 46 47 48 49 50
000
ASUS42 KFFC 011910
RWRGA
WEATHER ROUNDUP FOR GEORGIA
NATIONAL WEATHER SERVICE PEACHTREE CITY GA
200 PM EST WED MAR 01 2017

NOTE: "FAIR" INDICATES FEW OR NO CLOUDS BELOW 12,000 FEET WITH NO
SIGNIFICANT WEATHER AND/OR OBSTRUCTIONS TO VISIBILITY.

* = USE WITH CAUTION. THE STATIONS MARKED WITH AN ASTERISK MAY NOT
REPORT WEATHER SUCH AS PRECIPITATION, FOG, OR THUNDER AND ARE NOT
QUALITY CONTROLLED BY NWS.

THE REMARK "TC" DENOTES TEMPERATURE READING IN DEGREES CELSIUS.

GAZ001>058-012000-
NORTH GEORGIA

CITY           SKY/WX    TMP DP  RH WIND       PRES   REMARKS
ATLANTA        CLOUDY    77  58  51 SW12G28   29.95F
ATHENS         MOSUNNY   78  60  53 SW12G22   29.92F
CHAMBLEE       CLOUDY    76  57  51 SW16G28   29.94S
PEACHTREE CITY PTSUNNY   78  60  53 SW9G28    29.95F
ROME           CLOUDY    76  61  59 SW15G23   29.88F
WEST ATLANTA   CLOUDY    77  57  50 SW17G23   29.93F
GAINESVILLE    CLOUDY    75  58  55 SW18G32   29.94F
CARTERSVILLE   PTSUNNY   76  59  55 SW13G22   29.91F


CITY           SKY/WX    TMP DP  RH WIND       PRES   REMARKS
DALTON*        CLOUDY    72  63  73 S9G16     29.88F
LAWRENCEVILLE* PTSUNNY   75  57  53 SW17G29   29.94F
MARIETTA       PTSUNNY   77  59  54 SW9G20    29.92F
KENNESAW*      PTSUNNY   77  57  50 SW20G28   29.89F
CANTON*        PTSUNNY   73  50  43 SW12G23   29.93F
$$

GAZ059>098-102>109-012000-
CENTRAL GEORGIA

CITY           SKY/WX    TMP DP  RH WIND       PRES   REMARKS
AUGUSTA-BUSH   MOSUNNY   83  60  45 SW17G26   29.94F
AUGUSTA-DANIEL SUNNY     79  58  48 SW13G24   29.96F
COLUMBUS       MOSUNNY   80  60  50 SW21G31   29.97F
MACON          SUNNY     79  61  53 SW23G30   29.96F
ROBINS AFB     SUNNY     82  63  53 SW14G26   29.97F


CITY           SKY/WX    TMP DP  RH WIND       PRES   REMARKS
LAGRANGE*      PTSUNNY   82  65  57 SW20G28   29.96F
SYLVANIA*      MOSUNNY  N/A N/A N/A SW9G23    30.02F
MILLEDGEVILLE* MOSUNNY   81  63  54 S6        29.97F
$$

GAZ099>101-110>166-012000-
SOUTH GEORGIA

CITY           SKY/WX    TMP DP  RH WIND       PRES   REMARKS
SAVANNAH       PTSUNNY   86  61  42 SW25G37   30.02F
VALDOSTA       PTSUNNY   78  66  66 SW8       30.07F
ALMA           PTSUNNY   79  66  64 SW13G18   30.05F
ST SIMONS      MOSUNNY   75  65  70 S14       30.05F
FT STEWART     PTSUNNY   81  65  57 SW14G20   30.01F
ALBANY         PTSUNNY   82  62  50 SW17G28   30.04F
HUNTER AFB     PTSUNNY   84  69  61 SW14G20   30.00F
MOODY AFB      MOSUNNY   79  66  63 SW16      30.05F
BRUNSWICK      MOSUNNY   86  68  54 S14G24    30.05F


CITY           SKY/WX    TMP DP  RH WIND       PRES   REMARKS
BAINBRIDGE*    SUNNY     86  59  39 SW16G23   30.04F
MOULTRIE*      MOSUNNY   81  64  57 S15G23    30.06F
VIDALIA*       PTSUNNY   81  68  65 SW13G18   30.03F
WAYCROSS*      PTSUNNY   85  71  61 W13       30.05F HX  90
DOUGLAS*       PTSUNNY   81  61  50 SW21G31   30.07F
$$



USA.gov is the U.S. government's official web portal to all federal, state and local government web resources and services.